This demonstration page uses our WeatherBlox Daily Observations layout. Learn more.

Left ArrowRight Arrow

Hourly Observations for January 9, 2017

Temp ( °F °C ) Dew Point ( °F °C ) Humidity (%) Winds ( mph kmh ) Pressure ( in mb ) Visibility ( mi km ) Precip ( " mm )
12:53 am 00:53 Clear 37 2.8 20 -6.7 50 50 SE 3 6 30.23 1024 10 16 0.00 0.00
1:53 am 01:53 Clear 34 1.1 21 -6.1 59 59 Calm 30.21 1023 10 16 0.00 0.00
2:53 am 02:53 Clear 34 1.1 21 -6.1 59 59 Calm 30.20 1023 10 16 0.00 0.00
3:53 am 03:53 Clear 33 0.6 22 -5.6 64 64 Calm 30.19 1022 10 16 0.00 0.00
4:53 am 04:53 Clear 30 -1.1 22 -5.6 72 72 ENE 5 7 30.18 1022 10 16 0.00 0.00
5:53 am 05:53 Clear 30 -1.1 22 -5.6 72 72 Calm 30.18 1022 10 16 0.00 0.00
6:53 am 06:53 Clear 30 -1.1 22 -5.6 72 72 E 3 6 30.20 1023 10 16 0.00 0.00
7:53 am 07:53 Clear 28 -2.2 23 -5 81 81 NNE 3 6 30.21 1023 10 16 0.00 0.00
8:53 am 08:53 Sunny 36 2.2 25 -3.9 64 64 Calm 30.22 1023 10 16 0.00 0.00
9:53 am 09:53 Sunny 43 6.1 27 -2.8 53 53 ESE 5 7 30.20 1023 10 16 0.00 0.00
10:53 am 10:53 Sunny 52 11.1 28 -2.2 40 40 Calm 30.20 1023 10 16 0.00 0.00
11:53 am 11:53 Sunny 61 16.1 30 -1.1 31 31 Calm 30.15 1021 10 16 0.00 0.00
12:53 pm 12:53 Sunny 69 20.6 31 -0.6 24 24 SSW 6 9 30.08 1019 10 16 0.00 0.00
1:53 pm 13:53 Sunny 75 23.9 33 0.6 22 22 SSW 12 19 30.01 1016 10 16 0.00 0.00
2:53 pm 14:53 Sunny 78 25.6 34 1.1 20 20 WSW 13 20 29.98 1015 10 16 0.00 0.00
3:53 pm 15:53 Sunny 82 27.8 34 1.1 18 18 WSW 12 19 29.95 1014 10 16 0.00 0.00
4:53 pm 16:53 Sunny 81 27.2 33 0.6 18 18 SW 14 22 29.94 1014 10 16 0.00 0.00
5:53 pm 17:53 Sunny 71 21.7 36 2.2 28 28 S 8 13 29.95 1014 10 16 0.00 0.00
6:53 pm 18:53 Clear 63 17.2 35 1.7 35 35 SSE 9 15 29.96 1014 10 16 0.00 0.00
7:53 pm 19:53 Clear 61 16.1 32 0 34 34 SE 12 19 29.95 1014 10 16 0.00 0.00
8:53 pm 20:53 Clear 56 13.3 31 -0.6 39 39 SE 8 13 29.96 1014 10 16 0.00 0.00
9:53 pm 21:53 Clear 54 12.2 31 -0.6 42 42 SE 10 17 29.92 1013 10 16 0.00 0.00
10:53 pm 22:53 Clear 55 12.8 32 0 42 42 SE 9 15 29.91 1013 10 16 0.00 0.00
11:53 pm 23:53 Clear 51 10.6 33 0.6 50 50 SSE 9 15 29.91 1013 10 16 0.00 0.00

Powered by AerisWeather